sat.trackr.live / text

‹ back to catalog

STARLINK-32876

NORAD 63151 · 2025-043V

PAYLOAD ACTIVE UNKNOWN

§ Identity

Operator
Country
US
Launch date
2025-03-03
Launch site
AFETR
Launch vehicle
Mass (kg)
RCS (m²)

Purposes: comms

External: N2YO · Heavens-Above · Gunter

§ Orbital elements

Epoch: 2026-09-19T23:49:05.827584Z

Period
94.27 min
Inclination
42.9993°
Eccentricity
0.0001260
Mean motion
15.27605299 rev/d
Perigee alt
482.1 km
Apogee alt
483.8 km
Semi-major
6,861.1 km
B*
6.0991e-4
RAAN
358.4514°
Arg perigee
252.0714°
Mean anomaly
108.0001°
Rev number
8,708

§ Raw data

STARLINK-328761 63151U 25043V   26262.99242856  .00016572  00000+0  60991-3 0  99912 63151  42.9993 358.4514 0001260 252.0714 108.0001 15.27605299 87083

JSON: /api/v1/satellites/63151 · /tle

For live sub-satellite position, see the globe view (requires WebGL).

§ Visibility from observer

Set your observer location to see the next 7 days of passes ≥ 10°. The values pass through the URL so the page stays shareable.

No JS? Fill the form by hand. The geolocation button needs JavaScript.